Terug naar catalogus

NOAA 16 DEB

ActiefSSO
NORAD 42422·DEBRIS·🇺🇸 United States

Gelanceerd Sep 21, 2000 vanaf Vandenberg Space Force Base

Loading…

Volgende Passages (komende 24 uur)

TLE

VersSource: Space-Track

Epoch: Sep 14, 2026, 03:42 UTC

1 42422U 00055TS  26257.15431997  .00003263  00000-0  11480-2 0  9995
2 42422  98.7842   5.3803 0010688  41.8490 318.3510 14.35559490539779

Volg NOAA 16 DEB in realtime met AllMySat

Download on the App Store